User: anonymous   Login
Location: Bratislava
(0.0000°N, 17.1167°E)
Time: 03:58:54
(UTC+02:00)
Language:

GEOS 3 Rocket - Orbit

View from above orbital plane
View from above orbital plane
View from above satellite
View from above satellite

Ground track
Ground track

The orbit data is extracted from the following two-line orbital elements,

1  7735U 75027B   21106.79066780 -.00000137  00000-0  17362-4 0  9991
2  7735 114.9763 105.7772 0050191 230.8704 128.7909 14.24634839389598
Epoch (UTC): 16 April 2021 18:58:33
Eccentricity: 0.0050191
inclination: 114.9763°
perigee height: 773 km
apogee height: 846 km
right ascension of ascending node: 105.7772°
argument of perigee: 230.8704°
revolutions per day: 14.24634839
mean anomaly at epoch: 128.7909°
orbit number at epoch: 38959

The dashed part of the orbit path shows where the satellite is in the earth's shadow,  

DLR